This is the latest recevied weather packets stored in our database for station/object WX4FUN-13. If no packets are shown the sender has not sent any weather packets the latest 10 day(s).
| Time | Temp. | Humidity | Pressure | Rain* | Wind** | Luminosity | Snow |
|---|---|---|---|---|---|---|---|
| 1777872564 | 3.89° C | 77% | 1012 hPa | 0 mm | - | 0 W/m² | - |
| 1777871962 | 3.89° C | 78% | 1011.8 hPa | 0 mm | - | 0 W/m² | - |
| 1777871361 | 3.89° C | 79% | 1011.9 hPa | 0 mm | - | 0 W/m² | - |
| 1777870758 | 3.33° C | 79% | 1012 hPa | 0 mm | - | 0 W/m² | - |
| 1777870159 | 3.33° C | 78% | 1012 hPa | 0 mm | - | 0 W/m² | - |
| 1777869559 | 3.89° C | 78% | 1011.9 hPa | 0 mm | - | 0 W/m² | - |
| 1777868958 | 3.89° C | 78% | 1012 hPa | 0 mm | - | 0 W/m² | - |
| 1777868357 | 3.89° C | 77% | 1011.9 hPa | 0 mm | - | 0 W/m² | - |
| 1777867757 | 3.89° C | 76% | 1012 hPa | 0 mm | - | 0 W/m² | - |
| 1777867156 | 4.44° C | 76% | 1011.8 hPa | 0 mm | - | 0 W/m² | - |
| 1777866556 | 4.44° C | 75% | 1011.8 hPa | 0 mm | - | 0 W/m² | - |
| 1777865956 | 4.44° C | 74% | 1011.8 hPa | 0 mm | - | 0 W/m² | - |
| 1777864753 | 4.44° C | 71% | 1011.6 hPa | 0 mm | - | 0 W/m² | - |
| 1777864155 | 5° C | 70% | 1011.5 hPa | 0 mm | - | 0 W/m² | - |
| 1777863551 | 5° C | 69% | 1011.5 hPa | 0 mm | - | 0 W/m² | - |
| 1777862951 | 5.56° C | 67% | 1011.6 hPa | 0 mm | - | 0 W/m² | - |
| 1777862351 | 5.56° C | 67% | 1011.7 hPa | 0 mm | - | 0 W/m² | - |
| 1777861750 | 6.11° C | 68% | 1011.6 hPa | 0 mm | - | 0 W/m² | - |
| 1777861150 | 6.11° C | 63% | 1011.5 hPa | 0 mm | - | 0 W/m² | - |
| 1777860550 | 6.11° C | 63% | 1011.4 hPa | 0 mm | - | 0 W/m² | - |
| 1777859947 | 6.67° C | 64% | 1011.3 hPa | 0 mm | - | 0 W/m² | - |
| 1777859349 | 6.67° C | 64% | 1011.3 hPa | 0 mm | - | 0 W/m² | - |
| 1777858750 | 7.22° C | 60% | 1011.2 hPa | 0 mm | - | 0 W/m² | - |
| 1777858150 | 7.78° C | 56% | 1011.1 hPa | 0 mm | - | 0 W/m² | - |
| 1777857550 | 7.78° C | 55% | 1011 hPa | 0 mm | - | 0 W/m² | - |
* Rain latest hour (hover to see other rain measurements)
** Current wind speed in m/s (hover to see current wind gust speed)